Time,TemperatureF,DewpointF,PressureIn,WindDirection,WindDirectionDegrees,WindSpeedMPH,WindSpeedGustMPH,Humidity,HourlyPrecipIn,Conditions,Clouds,dailyrainin,SoftwareType,DateUTC
2013-12-23 00:03:00,30.0,-99.9,-100.00,North,-999,-999.0,-999.0,-999,0.00,,,0.18,,2013-12-23 05:03:00,
2013-12-23 00:12:00,30.0,-99.9,-100.00,North,-999,-999.0,-999.0,-999,0.00,,,0.18,,2013-12-23 05:12:00,
2013-12-23 01:53:00,30.0,-99.9,-100.00,North,-999,-999.0,-999.0,-999,-99.99,,,0.18,,2013-12-23 06:53:00,
2013-12-23 02:02:00,30.0,-99.9,-100.00,North,-999,-999.0,-999.0,-999,-99.99,,,0.18,,2013-12-23 07:02:00,
2013-12-23 02:12:00,30.0,-99.9,-100.00,North,-999,-999.0,-999.0,-999,-99.99,,,0.18,,2013-12-23 07:12:00,
2013-12-23 02:52:00,30.0,-99.9,-100.00,North,-999,-999.0,-999.0,-999,0.00,,,0.18,,2013-12-23 07:52:00,
2013-12-23 03:03:00,30.0,-99.9,-100.00,North,-999,-999.0,-999.0,-999,0.00,,,0.18,,2013-12-23 08:03:00,
2013-12-23 03:12:00,30.0,-99.9,-100.00,North,-999,-999.0,-999.0,-999,0.00,,,0.18,,2013-12-23 08:12:00,
2013-12-23 03:53:00,30.0,-99.9,-100.00,North,-999,-999.0,-999.0,-999,0.00,,,0.18,,2013-12-23 08:53:00,
2013-12-23 04:02:00,30.0,-99.9,-100.00,North,-999,-999.0,-999.0,-999,0.00,,,0.18,,2013-12-23 09:02:00,
2013-12-23 04:12:00,30.0,-99.9,-100.00,North,-999,-999.0,-999.0,-999,0.00,,,0.18,,2013-12-23 09:12:00,
2013-12-23 04:54:00,29.0,-99.9,-100.00,North,-999,-999.0,-999.0,-999,0.00,,,0.11,,2013-12-23 09:54:00,
2013-12-23 05:03:00,29.0,-99.9,-100.00,North,-999,-999.0,-999.0,-999,0.00,,,0.11,,2013-12-23 10:03:00,
2013-12-23 05:13:00,29.0,-99.9,-100.00,North,-999,-999.0,-999.0,-999,0.00,,,0.11,,2013-12-23 10:13:00,
2013-12-23 05:53:00,29.0,-99.9,-100.00,North,-999,-999.0,-999.0,-999,0.00,,,0.08,,2013-12-23 10:53:00,
2013-12-23 06:02:00,29.0,-99.9,-100.00,North,-999,-999.0,-999.0,-999,0.00,,,0.08,,2013-12-23 11:02:00,
2013-12-23 06:12:00,29.0,-99.9,-100.00,North,-999,-999.0,-999.0,-999,0.00,,,0.08,,2013-12-23 11:12:00,
2013-12-23 06:53:00,29.0,-99.9,-100.00,North,-999,-999.0,-999.0,-999,0.00,,,0.08,,2013-12-23 11:53:00,
2013-12-23 07:02:00,29.0,-99.9,-100.00,North,-999,-999.0,-999.0,-999,0.00,,,0.08,,2013-12-23 12:02:00,
2013-12-23 07:12:00,29.0,-99.9,-100.00,North,-999,-999.0,-999.0,-999,0.00,,,0.08,,2013-12-23 12:12:00,
2013-12-23 08:52:00,29.0,-99.9,-100.00,North,-999,-999.0,-999.0,-999,-99.99,,,0.08,,2013-12-23 13:52:00,
2013-12-23 09:02:00,29.0,-99.9,-100.00,North,-999,-999.0,-999.0,-999,-99.99,,,0.08,,2013-12-23 14:02:00,
2013-12-23 09:11:00,29.0,-99.9,-100.00,North,-999,-999.0,-999.0,-999,-99.99,,,0.08,,2013-12-23 14:11:00,
2013-12-23 09:52:00,30.0,-99.9,-100.00,North,-999,-999.0,-999.0,-999,0.00,,,0.06,,2013-12-23 14:52:00,
2013-12-23 10:02:00,30.0,-99.9,-100.00,North,-999,-999.0,-999.0,-999,0.00,,,0.06,,2013-12-23 15:02:00,
2013-12-23 10:12:00,30.0,-99.9,-100.00,North,-999,-999.0,-999.0,-999,0.00,,,0.06,,2013-12-23 15:12:00,
2013-12-23 10:54:00,32.0,-99.9,-100.00,North,-999,-999.0,-999.0,-999,0.00,,,0.04,,2013-12-23 15:54:00,
2013-12-23 11:04:00,32.0,-99.9,-100.00,North,-999,-999.0,-999.0,-999,0.00,,,0.04,,2013-12-23 16:04:00,
2013-12-23 11:14:00,32.0,-99.9,-100.00,North,-999,-999.0,-999.0,-999,0.00,,,0.04,,2013-12-23 16:14:00,
2013-12-23 11:53:00,32.0,-99.9,-100.00,North,-999,-999.0,-999.0,-999,0.00,,,0.03,,2013-12-23 16:53:00,
2013-12-23 12:02:00,32.0,-99.9,-100.00,North,-999,-999.0,-999.0,-999,0.00,,,0.03,,2013-12-23 17:02:00,
2013-12-23 12:13:00,32.0,-99.9,-100.00,North,-999,-999.0,-999.0,-999,0.00,,,0.03,,2013-12-23 17:13:00,
2013-12-23 12:53:00,32.0,-99.9,-100.00,North,-999,-999.0,-999.0,-999,0.00,,,0.03,,2013-12-23 17:53:00,
2013-12-23 13:02:00,32.0,-99.9,-100.00,North,-999,-999.0,-999.0,-999,0.00,,,0.03,,2013-12-23 18:02:00,
2013-12-23 13:12:00,32.0,-99.9,-100.00,North,-999,-999.0,-999.0,-999,0.00,,,0.03,,2013-12-23 18:12:00,
2013-12-23 13:52:00,33.0,-99.9,-100.00,North,-999,-999.0,-999.0,-999,0.01,,,0.04,,2013-12-23 18:52:00,
2013-12-23 14:02:00,33.0,-99.9,-100.00,North,-999,-999.0,-999.0,-999,0.01,,,0.04,,2013-12-23 19:02:00,
2013-12-23 14:12:00,33.0,-99.9,-100.00,North,-999,-999.0,-999.0,-999,0.01,,,0.04,,2013-12-23 19:12:00,
2013-12-23 14:52:00,33.0,-99.9,-100.00,North,-999,-999.0,-999.0,-999,0.02,,,0.05,,2013-12-23 19:52:00,
2013-12-23 15:02:00,33.0,-99.9,-100.00,North,-999,-999.0,-999.0,-999,0.02,,,0.05,,2013-12-23 20:02:00,
2013-12-23 15:12:00,33.0,-99.9,-100.00,North,-999,-999.0,-999.0,-999,0.02,,,0.05,,2013-12-23 20:12:00,
2013-12-23 15:52:00,33.0,-99.9,-100.00,North,-999,-999.0,-999.0,-999,0.04,,,0.08,,2013-12-23 20:52:00,
2013-12-23 16:02:00,33.0,-99.9,-100.00,North,-999,-999.0,-999.0,-999,0.04,,,0.08,,2013-12-23 21:02:00,
2013-12-23 16:12:00,33.0,-99.9,-100.00,North,-999,-999.0,-999.0,-999,0.04,,,0.08,,2013-12-23 21:12:00,
2013-12-23 16:54:00,33.0,-99.9,-100.00,North,-999,-999.0,-999.0,-999,0.02,,,-99.99,,2013-12-23 21:54:00,
2013-12-23 17:03:00,33.0,-99.9,-100.00,North,-999,-999.0,-999.0,-999,0.02,,,-99.99,,2013-12-23 22:03:00,
2013-12-23 17:13:00,33.0,-99.9,-100.00,North,-999,-999.0,-999.0,-999,0.02,,,-99.99,,2013-12-23 22:13:00,
2013-12-23 17:53:00,33.0,-99.9,-100.00,North,-999,-999.0,-999.0,-999,0.01,,,0.11,,2013-12-23 22:53:00,
2013-12-23 18:02:00,33.0,-99.9,-100.00,North,-999,-999.0,-999.0,-999,0.01,,,0.11,,2013-12-23 23:02:00,
2013-12-23 18:12:00,33.0,-99.9,-100.00,North,-999,-999.0,-999.0,-999,0.01,,,0.11,,2013-12-23 23:12:00,
2013-12-23 18:54:00,33.0,-99.9,-100.00,North,-999,-999.0,-999.0,-999,0.02,,,0.12,,2013-12-23 23:54:00,
2013-12-23 19:03:00,33.0,-99.9,-100.00,North,-999,-999.0,-999.0,-999,0.02,,,0.12,,2013-12-24 00:03:00,
2013-12-23 19:12:00,33.0,-99.9,-100.00,North,-999,-999.0,-999.0,-999,0.02,,,0.12,,2013-12-24 00:12:00,
2013-12-23 19:53:00,33.0,-99.9,-100.00,North,-999,-999.0,-999.0,-999,0.02,,,0.14,,2013-12-24 00:53:00,
2013-12-23 20:02:00,33.0,-99.9,-100.00,North,-999,-999.0,-999.0,-999,0.02,,,0.14,,2013-12-24 01:02:00,
2013-12-23 20:11:00,33.0,-99.9,-100.00,North,-999,-999.0,-999.0,-999,0.02,,,0.14,,2013-12-24 01:11:00,
2013-12-23 20:52:00,33.0,-99.9,-100.00,North,-999,-999.0,-999.0,-999,0.02,,,0.16,,2013-12-24 01:52:00,
2013-12-23 21:02:00,33.0,-99.9,-100.00,North,-999,-999.0,-999.0,-999,0.02,,,0.16,,2013-12-24 02:02:00,
2013-12-23 21:12:00,33.0,-99.9,-100.00,North,-999,-999.0,-999.0,-999,0.02,,,0.16,,2013-12-24 02:12:00,
2013-12-23 21:52:00,33.0,-99.9,-100.00,North,-999,-999.0,-999.0,-999,0.01,,,0.17,,2013-12-24 02:52:00,
2013-12-23 22:02:00,33.0,-99.9,-100.00,North,-999,-999.0,-999.0,-999,0.01,,,0.17,,2013-12-24 03:02:00,
2013-12-23 22:11:00,33.0,-99.9,-100.00,North,-999,-999.0,-999.0,-999,0.01,,,0.17,,2013-12-24 03:11:00,
2013-12-23 22:53:00,32.0,-99.9,-100.00,North,-999,-999.0,-999.0,-999,0.00,,,0.17,,2013-12-24 03:53:00,
2013-12-23 23:03:00,32.0,-99.9,-100.00,North,-999,-999.0,-999.0,-999,0.00,,,0.17,,2013-12-24 04:03:00,
2013-12-23 23:13:00,32.0,-99.9,-100.00,North,-999,-999.0,-999.0,-999,0.00,,,0.17,,2013-12-24 04:13:00,
2013-12-23 23:53:00,32.0,-99.9,-100.00,North,-999,-999.0,-999.0,-999,0.00,,,0.17,,2013-12-24 04:53:00,